Regional Weather Roundup
Issued by NWS Newport/Morehead, NC

Current Version | Previous Version | Graphics & Text | Print | Product List | Glossary Off
Versions: 1 2 3 4 5 6 7 8 9 10 11 12 13 14 15 16 17 18 19 20 21 22 23 24 25 26 27 28 29 30 31 32 33 34 35 36 37 38 39 40 41 42 43 44 45 46 47 48 49 50
000 ASUS42 KMHX 310713 RWRMHX WEATHER ROUNDUP FOR EASTERN NORTH CAROLINA NATIONAL WEATHER SERVICE NEWPORT/MOREHEAD CITY NC 300 AM EDT MON AUG 31 2015 NOTE: "FAIR" INDICATES FEW OR NO CLOUDS BELOW 12,000 FEET WITH NO SIGNIFICANT WEATHER AND/OR OBSTRUCTIONS TO VISIBILITY NCZ015>017-031-032-045>047-102-103-310800- NORTH COAST CITY SKY/WX TMP DP RH WIND PRES REMARKS EDENTON CLOUDY 75 67 74 CALM 30.11S ELIZABETH CITY CLOUDY 74 72 93 S3 30.10F KITTY HAWK CLOUDY 76 72 87 SW3 30.11R MANTEO CLOUDY 76 73 91 SW5 30.13R $$ NCZ045>047-081-094-103-104-310800- CENTRAL COAST CITY SKY/WX TMP DP RH WIND PRES REMARKS FRISCO CLOUDY 74 71 91 CALM 30.12S SWANQUARTER NOT AVBL $$ NCZ095-097-098-100-101-310800- SOUTHERN COAST CITY SKY/WX TMP DP RH WIND PRES REMARKS BEAUFORT CLOUDY 76 70 82 E3 30.11F CEDAR ISLAND NOT AVBL JACKSONVILLE CLOUDY 74 70 87 CALM 30.11S PINEY ISLAND CLOUDY N/A N/A N/A CALM 30.12S WILMINGTON LGT RAIN 74 72 93 E3 30.10F $$ NCZ011>013-027>030-043-044-078>080-089-090>093-098-310800- COASTAL PLAIN CITY SKY/WX TMP DP RH WIND PRES REMARKS AHOSKIE CLOUDY 70 66 87 CALM 30.12S CLINTON CLOUDY 71 71 99 CALM 30.12R ELIZABETHTOWN LGT RAIN 70 70 99 CALM 30.10S GOLDSBORO CLOUDY 71 68 88 SE2 30.11R GREENVILLE CLOUDY 72 70 94 CALM 30.13S HAVELOCK CLOUDY 75 69 81 CALM 30.13S KENANSVILLE N/A 69 68 95 CALM 30.13S KINSTON CLOUDY 71 69 93 CALM 30.12S NEW BERN CLOUDY 73 69 87 CALM 30.13S RICHLANDS CLOUDY 73 66 78 CALM 30.12S ROCKY MOUNT CLOUDY 72 66 81 CALM 30.11F WASHINGTON CLOUDY 72 69 90 CALM 30.12R WHITEVILLE CLOUDY 71 69 92 E3 30.08F $$ AMZ130-135-150-152-154-156-158-170-250-252-270-ANZ085-086-088-633-658-670-310800- MARINE OBSERVATIONS STATION/POSITION TIME TEMP WIND PRES WAVE SWELL AIR SEA DIR/SP/G HT/PER HT/PER (UTC) (F) (DEG/KT/KT) (MB) (FT/S) (FT/S) CHESAPEAKE LIGHT 0700 77 220/ 6/ 7 1020.2 64 E VA BEACH 0650 77 78 270/ 2/ 4 1019.3 4/10 3/10 DUCK NOT AVBL 2 E DUCK 0611 79 N/A 2/11 2/11 OREGON INLET NOT AVBL 13E OREGON INLT 0700 78 N/A 3/11 2/11 HATTERAS CG NOT AVBL DIAMOND BUOY 0650 79 83 340/ 2/ 4 1020.3 3/ 9 3/ 9 CAPE LOOKOUT 0700 79 120/ 6/ 7 1019.5 BEAUFORT LAB NOT AVBL 30 SE NEW RVR IN 0608 80 81 120/ 8/ 12 1019.7 30 SE NEW RVR IN 0625 81 N/A 4/10 2/11 27 SE WRIGHTSVLE 0600 76 82 130/ 8/ 10 N/A 5 SE WRIGHTSVLE 0608 80 82 150/ 10/ 14 1019.4 225 S CAPE HAT 0650 83 84 180/ 8/ 10 1020.2 4/ 8 3/ 8 41 SE CHARLESTON 0650 81 84 130/ 16/ 19 1017.3 5/11 5/11 $$

USA.gov is the U.S. government's official web portal to all federal, state and local government web resources and services.